[[{"header":{"parameterUnit":"m.s-1","parameterCategory":1,"la1":30.2991,"la2":30.254,"lo1":-89.0895,"lo2":-89.0444,"dy":0.0017,"dx":0.0017,"nx":28,"ny":28,"refTime":"2025-05-22T21:00:00:Z","depth":0,"parameterNumber":2,"parameterNumberName":"U-component_of_WINDS"},"data":[0,0,0,0,0,0,0,0,0,0,0,0,0,0,0,0,0,0,0,0,0,0,0,0,0,0,0,0,0,0,0,0,0,0,0,0,0,0,0,0,0,0,0,0,0,0,0,0,0,0,0,0,0,0,0,0,0,0,-0.1362,-0.136,0,-0.1191,-0.1189,-0.1187,-0.1099,-0.1099,-0.1099,-0.1099,-0.092,-0.0916,-0.0911,0,0,0,0,0,0,0,0,0,0,0,0,0,-0.1612,-0.1608,-0.1363,-0.136,-0.1358,-0.1191,-0.1189,-0.1186,-0.1099,-0.1099,-0.1099,-0.1098,-0.0922,-0.0916,-0.0911,0,0,0,0,0,0,0,0,0,0,0,0,0,-0.1478,-0.1607,-0.1363,-0.1294,-0.1287,-0.1191,-0.1189,-0.1186,-0.1099,-0.1099,-0.1099,-0.1098,-0.0924,-0.0917,-0.091,-0.0869,0,0,-0.0889,-0.0886,0,0,0,0,0,0,0,0,-0.1486,-0.1469,-0.1307,-0.1299,-0.129,-0.1166,-0.1211,-0.1079,-0.1099,-0.117,-0.1099,-0.1098,-0.1002,-0.0989,-0.0957,-0.0861,-0.0853,-0.0888,-0.0884,-0.0881,-0.0879,0,0,0,0,0,0,0,-0.1495,-0.1476,-0.1294,-0.1304,-0.1294,-0.1271,-0.1252,-0.1186,-0.1089,-0.1164,-0.1157,-0.1138,-0.0997,-0.0964,-0.0952,-0.0851,-0.0888,-0.0882,-0.0878,-0.0875,-0.0711,-0.0711,0,0,0,0,0,0,-0.1516,-0.1484,-0.13,-0.1289,-0.139,-0.1267,-0.1246,-0.1206,-0.1089,-0.1071,-0.1138,-0.1135,-0.0976,-0.096,-0.0945,-0.0888,-0.0881,-0.0874,-0.087,-0.0711,-0.0711,-0.0711,0,0,0,0,0,0,-0.1522,-0.15,-0.1307,-0.1385,-0.1359,-0.1263,-0.1219,-0.1203,-0.1169,-0.107,-0.1052,-0.1122,-0.0975,-0.0955,-0.0889,-0.0881,-0.0871,-0.0865,-0.0711,-0.0711,-0.0711,-0.0776,0,0,0,0,0,0,-0.1529,-0.1503,-0.1487,-0.1385,-0.1355,-0.1254,-0.1219,-0.1199,-0.1157,-0.115,-0.105,-0.1033,-0.0973,-0.0899,-0.0882,-0.0871,-0.0859,-0.0711,-0.0711,-0.0711,-0.0774,-0.0778,-0.0781,0,0,0,0,0,-0.1539,-0.1512,-0.1487,-0.1465,-0.1333,-0.1254,-0.1236,-0.1169,-0.1157,-0.1139,-0.1076,-0.1036,-0.0885,-0.0893,-0.0873,-0.086,-0.0712,-0.0711,-0.0711,-0.0772,-0.0777,-0.0781,0,0,0,0,0,0,-0.1615,-0.1498,-0.1468,-0.1408,-0.1342,-0.1239,-0.1215,-0.1177,-0.1112,-0.1108,-0.1027,-0.1005,-0.0945,-0.0896,-0.0907,-0.0813,-0.0794,-0.079,-0.0848,-0.0851,-0.0855,-0.0868,-0.0853,0,0,0,0,0,-0.1626,-0.1572,-0.1471,-0.1428,-0.1396,-0.1312,-0.1275,-0.1229,-0.1156,-0.1128,-0.1059,-0.099,-0.0926,-0.0886,-0.0823,-0.0766,-0.0742,-0.0747,-0.0751,-0.0755,-0.0751,-0.0716,-0.0717,-0.071,-0.071,-0.071,0,0,-0.1646,-0.1574,-0.1545,-0.1442,-0.1385,-0.133,-0.1289,-0.1233,-0.1191,-0.1119,-0.1051,-0.0999,-0.0916,-0.0854,-0.0824,-0.0811,-0.0748,-0.0754,-0.0758,-0.0752,-0.0716,-0.0717,-0.0717,-0.0709,-0.0709,-0.0709,0,0,-0.1654,-0.1595,-0.1552,-0.1496,-0.141,-0.1354,-0.1344,-0.1247,-0.1209,-0.1141,-0.1085,-0.1034,-0.0927,-0.087,-0.0827,-0.0813,-0.0773,-0.0794,-0.0813,-0.078,-0.078,-0.078,-0.0774,-0.0773,-0.0791,-0.0792,-0.0792,0,-0.1689,-0.1605,-0.1535,-0.1481,-0.1436,-0.137,-0.1324,-0.1273,-0.1171,-0.1141,-0.1129,-0.0993,-0.0933,-0.0856,-0.0852,-0.082,-0.0805,-0.0805,-0.0786,-0.0785,-0.0784,-0.0777,-0.0775,-0.0795,-0.0794,-0.0794,-0.0794,0,-0.1652,-0.1594,-0.1569,-0.1473,-0.1425,-0.1377,-0.1298,-0.1259,-0.1217,-0.1162,-0.1092,-0.1017,-0.0937,-0.0915,-0.0874,-0.0832,-0.0827,-0.0802,-0.078,-0.0789,-0.0781,-0.0778,-0.0799,-0.0798,-0.0797,-0.0796,0,0,-0.1703,-0.1568,-0.156,-0.1515,-0.1415,-0.1369,-0.1316,-0.1238,-0.1205,-0.1137,-0.109,-0.1001,-0.0977,-0.0928,-0.0879,-0.0851,-0.0843,-0.0828,-0.0825,-0.0832,-0.079,-0.0809,-0.0807,-0.0816,-0.0815,-0.0815,-0.0797,0,-0.1696,-0.16,-0.1534,-0.1463,-0.1408,-0.1343,-0.1297,-0.1231,-0.1178,-0.1123,-0.1064,-0.1002,-0.0976,-0.0945,-0.0914,-0.085,-0.0833,-0.0851,-0.077,-0.0768,-0.0792,-0.0803,-0.0823,-0.081,-0.0793,-0.0793,-0.0792,0,-0.1675,-0.1609,-0.1532,-0.1437,-0.1412,-0.1372,-0.1294,-0.1243,-0.1166,-0.1129,-0.1075,-0.1025,-0.0966,-0.0951,-0.0868,-0.0882,-0.0845,-0.0809,-0.0806,-0.0795,-0.078,-0.0791,-0.0804,-0.0802,-0.0787,-0.0787,-0.0788,0,-0.1718,-0.161,-0.155,-0.1513,-0.1402,-0.1375,-0.1327,-0.125,-0.1206,-0.1139,-0.1109,-0.1036,-0.0995,-0.0939,-0.087,-0.0866,-0.0793,-0.0773,-0.076,-0.0762,-0.0747,-0.0748,-0.0753,-0.0726,-0.0726,-0.0726,-0.0726,0,-0.1717,-0.1672,-0.1567,-0.153,-0.1478,-0.1403,-0.1353,-0.13,-0.1232,-0.1182,-0.1122,-0.1077,-0.099,-0.0933,-0.0879,-0.0818,-0.08,-0.0768,-0.0754,-0.0773,-0.0777,-0.0747,-0.0745,-0.0725,-0.0725,-0.0725,-0.0725,0,-0.1756,-0.1684,-0.1614,-0.1514,-0.1488,-0.1454,-0.1367,-0.1328,-0.1272,-0.1211,-0.1192,-0.1104,-0.1034,-0.0961,-0.0866,-0.083,-0.077,-0.0751,-0.0797,-0.0788,-0.0779,-0.0781,-0.0763,-0.0757,-0.0736,-0.0737,-0.0737,0,-0.1759,-0.1723,-0.1619,-0.1582,-0.1535,-0.1476,-0.1432,-0.1357,-0.1313,-0.1222,-0.1193,-0.112,-0.1057,-0.0949,-0.0876,-0.0803,-0.0781,-0.078,-0.077,-0.0789,-0.0779,-0.0782,-0.0777,-0.0783,-0.0784,-0.0784,-0.0785,0,-0.1771,-0.1737,-0.1676,-0.1602,-0.155,-0.1488,-0.1424,-0.1397,-0.1309,-0.1262,-0.1191,-0.1142,-0.1046,-0.0973,-0.0891,-0.0841,-0.0798,-0.0789,-0.0781,-0.08,-0.0827,-0.0811,-0.0804,-0.0789,-0.0789,-0.0788,-0.0788,-0.0788,-0.1791,-0.1756,-0.1677,-0.161,-0.1553,-0.1494,-0.1452,-0.1391,-0.133,-0.1246,-0.1206,-0.1134,-0.1057,-0.0943,-0.0894,-0.0836,-0.0823,-0.0813,-0.081,-0.0809,-0.0813,-0.0837,-0.0821,-0.0821,-0.082,-0.082,-0.082,0,-0.1799,-0.1745,-0.1684,-0.1596,-0.1543,-0.1508,-0.1434,-0.1392,-0.133,-0.1262,-0.1201,-0.1119,-0.1048,-0.0969,-0.0893,-0.0862,-0.084,-0.0844,-0.0845,-0.0834,-0.0829,-0.0843,-0.0863,-0.0863,-0.0863,-0.0863,-0.0863,-0.0863,-0.1797,-0.1735,-0.1692,-0.16,-0.1546,-0.1475,-0.1436,-0.1381,-0.1326,-0.1237,-0.1178,-0.1127,-0.1054,-0.0973,-0.0905,-0.0884,-0.0858,-0.0868,-0.0841,-0.0838,-0.0835,-0.0831,-0.0843,-0.0863,-0.0863,-0.085,-0.085,-0.085]},{"header":{"parameterUnit":"m.s-1","parameterCategory":1,"la1":30.2991,"la2":30.254,"lo1":-89.0895,"lo2":-89.0444,"dy":0.0017,"dx":0.0017,"nx":28,"ny":28,"refTime":"2025-05-22T21:00:00:Z","depth":0,"parameterNumber":3,"parameterNumberName":"V-component_of_WINDS"},"data":[0,0,0,0,0,0,0,0,0,0,0,0,0,0,0,0,0,0,0,0,0,0,0,0,0,0,0,0,0,0,0,0,0,0,0,0,0,0,0,0,0,0,0,0,0,0,0,0,0,0,0,0,0,0,0,0,0,0,5.0409,5.0409,0,5.0408,5.0408,5.0408,5.0392,5.0391,5.0391,5.0391,5.0387,5.0387,5.0388,0,0,0,0,0,0,0,0,0,0,0,0,0,5.0398,5.0398,5.0409,5.0409,5.0409,5.0408,5.0408,5.0408,5.0392,5.0391,5.0391,5.039,5.0387,5.0387,5.0388,0,0,0,0,0,0,0,0,0,0,0,0,0,5.04,5.0398,5.0409,5.0401,5.0401,5.0408,5.0408,5.0408,5.0392,5.0391,5.0391,5.039,5.0387,5.0387,5.0388,5.0402,0,0,5.0389,5.0389,0,0,0,0,0,0,0,0,5.04,5.0401,5.0403,5.0402,5.0401,5.0399,5.0402,5.0406,5.0392,5.0395,5.0391,5.039,5.0392,5.0392,5.0392,5.0402,5.0402,5.0389,5.0389,5.0389,5.039,0,0,0,0,0,0,0,5.04,5.0401,5.0409,5.0403,5.0402,5.0397,5.0397,5.0403,5.0397,5.0395,5.0394,5.0394,5.0391,5.0392,5.0392,5.0402,5.0389,5.0389,5.039,5.039,5.0424,5.0424,0,0,0,0,0,0,5.0401,5.0401,5.0409,5.0409,5.0399,5.0398,5.0398,5.04,5.0397,5.0395,5.0394,5.0393,5.0392,5.0392,5.0392,5.0409,5.0389,5.039,5.039,5.0423,5.0424,5.0425,0,0,0,0,0,0,5.0401,5.0402,5.0409,5.0404,5.0405,5.0399,5.0402,5.0401,5.0402,5.0396,5.0395,5.0397,5.0391,5.0391,5.04,5.0409,5.039,5.039,5.0422,5.0423,5.0424,5.0443,0,0,0,0,0,0,5.0401,5.0402,5.0408,5.0405,5.0405,5.0417,5.0403,5.0401,5.0403,5.0401,5.0398,5.0397,5.0391,5.0399,5.04,5.0409,5.0391,5.0421,5.0423,5.0424,5.0441,5.0444,5.0447,0,0,0,0,0,5.04,5.0412,5.0408,5.0409,5.0412,5.0418,5.0418,5.0411,5.0404,5.0409,5.0406,5.0397,5.0408,5.04,5.0401,5.041,5.0421,5.0422,5.0424,5.044,5.0444,5.0447,0,0,0,0,0,0,5.0415,5.0412,5.0407,5.0418,5.0418,5.0415,5.0421,5.0415,5.0417,5.0415,5.0406,5.0406,5.0416,5.0414,5.0406,5.0424,5.0413,5.0415,5.0425,5.0428,5.0431,5.0431,5.0391,0,0,0,0,0,5.042,5.0425,5.0422,5.0432,5.0433,5.0427,5.0429,5.0424,5.0424,5.0424,5.0421,5.042,5.0424,5.0426,5.0429,5.0441,5.0441,5.0448,5.0451,5.0453,5.0454,5.0462,5.0465,5.0429,5.0429,5.0429,0,0,5.043,5.0428,5.0432,5.0435,5.0435,5.044,5.0427,5.0433,5.0437,5.0424,5.0432,5.0431,5.043,5.044,5.0445,5.0439,5.0464,5.0455,5.0457,5.0457,5.0463,5.0467,5.047,5.043,5.043,5.043,0,0,5.045,5.0449,5.0458,5.0459,5.0459,5.0455,5.0458,5.0455,5.0454,5.0462,5.0453,5.0457,5.0463,5.0463,5.0464,5.0486,5.0478,5.0487,5.0501,5.0508,5.0511,5.0513,5.0521,5.0524,5.0489,5.0489,5.0489,0,5.0461,5.047,5.0464,5.0471,5.0473,5.0463,5.0472,5.0472,5.0473,5.0474,5.0468,5.0476,5.0474,5.0485,5.0491,5.0492,5.0494,5.0487,5.0511,5.0513,5.0516,5.0523,5.0526,5.049,5.049,5.0489,5.0489,0,5.0484,5.049,5.0497,5.05,5.0502,5.051,5.0505,5.0509,5.0504,5.0501,5.051,5.0508,5.0511,5.0513,5.0508,5.0524,5.052,5.0513,5.0501,5.052,5.0527,5.053,5.0491,5.0491,5.0491,5.049,0,0,5.0512,5.0512,5.0515,5.0516,5.0516,5.0521,5.0529,5.0532,5.0535,5.0536,5.0543,5.0549,5.0542,5.0543,5.0538,5.0544,5.0562,5.0536,5.0536,5.0541,5.058,5.0586,5.0589,5.0558,5.0558,5.0559,5.058,0,5.0532,5.0546,5.0541,5.0555,5.0561,5.0552,5.0559,5.056,5.0558,5.0562,5.056,5.0564,5.0555,5.0556,5.0562,5.0559,5.057,5.0557,5.0563,5.0563,5.0563,5.0593,5.0598,5.0619,5.0583,5.0583,5.0584,0,5.0557,5.056,5.0575,5.0575,5.0577,5.0584,5.0587,5.0591,5.0592,5.059,5.0592,5.0586,5.0594,5.0583,5.0593,5.0585,5.0587,5.0586,5.0587,5.0587,5.0574,5.0593,5.0625,5.0628,5.0588,5.0587,5.0587,0,5.0576,5.0584,5.0595,5.0596,5.0596,5.0601,5.0601,5.0602,5.0604,5.0607,5.0609,5.0612,5.0614,5.0617,5.0612,5.0604,5.0623,5.0612,5.0622,5.0622,5.0626,5.0625,5.0658,5.0628,5.0627,5.0627,5.0627,0,5.0598,5.0608,5.0603,5.061,5.062,5.0615,5.0625,5.0625,5.0625,5.0631,5.0624,5.0629,5.0623,5.0627,5.0624,5.0633,5.0634,5.0633,5.0631,5.0633,5.0633,5.0634,5.0632,5.0628,5.0628,5.0628,5.0628,0,5.0622,5.0619,5.063,5.063,5.063,5.0638,5.0638,5.0643,5.0641,5.0649,5.065,5.0647,5.0652,5.0648,5.0653,5.0651,5.0663,5.066,5.0663,5.0662,5.0673,5.0672,5.0707,5.0711,5.0678,5.0678,5.0679,0,5.0636,5.0643,5.0644,5.0648,5.0649,5.0655,5.0659,5.0654,5.0657,5.066,5.0665,5.067,5.0674,5.0684,5.0681,5.0685,5.0682,5.0694,5.0683,5.0684,5.0682,5.0682,5.0683,5.0696,5.0697,5.0697,5.0697,0,5.0662,5.066,5.0666,5.0671,5.0675,5.0678,5.0681,5.0685,5.068,5.0685,5.0691,5.0694,5.07,5.0705,5.0709,5.0708,5.0702,5.0701,5.0704,5.0705,5.0707,5.0706,5.067,5.07,5.07,5.07,5.07,5.0699,5.0681,5.0687,5.069,5.0696,5.0698,5.0701,5.0707,5.0706,5.0711,5.0716,5.0713,5.0721,5.0722,5.0726,5.0727,5.0733,5.0728,5.0731,5.0732,5.0733,5.0735,5.0707,5.0733,5.0733,5.0733,5.0733,5.0733,0,5.0706,5.0708,5.0714,5.0719,5.0724,5.0719,5.0722,5.0726,5.0733,5.0735,5.074,5.0747,5.0752,5.0751,5.0756,5.0761,5.0758,5.0762,5.0761,5.0762,5.0739,5.0736,5.0764,5.0764,5.0764,5.0764,5.0764,5.0764,5.072,5.0731,5.073,5.0742,5.0743,5.0751,5.0754,5.0757,5.0758,5.0767,5.0772,5.0772,5.0773,5.0778,5.0782,5.0782,5.0784,5.0789,5.0787,5.0766,5.0763,5.076,5.0758,5.079,5.079,5.081,5.081,5.081]}]]